Topeka, KS

8:53 AM CST on February 25, 2017 (GMT -0600)
Forbes

Weather History for KFOE - January, 2014

Change the Weather History Date:

Wednesday, January 22, 2014

  Actual Average Record
Temperature  
Mean Temperature 24 °F -  
Max Temperature 39 °F 43 °F 71 °F (1967)
Min Temperature 9 °F 20 °F -5 °F (1959)
Degree Days  
Heating Degree Days 40    
Moisture  
Dew Point 8 °F    
Average Humidity 47    
Maximum Humidity 65    
Minimum Humidity 27    
Precipitation  
Precipitation 0.00 in - - ()
Sea Level Pressure  
Sea Level Pressure 30.24 in    
Wind  
Wind Speed 12 mph (NW)    
Max Wind Speed 26 mph    
Max Gust Speed 34 mph    
Visibility 10 miles    
Events      
Averages and records for this station are not official NWS values.
T = Trace of Precipitation, MM = Missing Value Source: NWS Daily Summary

Daily Weather History Graph

Daily Weather History Graph

Search for Another Location

Airport or City:

Trip Planner

Search our weather history database for the weather conditions in past years. The results will help you decide how hot, cold, wet, or windy it might be!

Date:

Astronomy

Jan. 22, 2014 Rise Set
Actual Time 7:36 AM CST 5:32 PM CST
Civil Twilight 7:07 AM CST 6:01 PM CST
Nautical Twilight 6:35 AM CST 6:33 PM CST
Astronomical Twilight 6:03 AM CST 7:05 PM CST
Moon No Moon Rise 10:41 AM CST (1/22)
Length of Visible Light 10h 53m
Length of Day
9h 56m
Waning Gibbous, 65% of the Moon is Illuminated
Jan 22
Waning Gibbous
Jan 23
Last Quarter
Jan 30
New
Feb 6
First Quarter
Feb 14
Full

Hourly Weather History & Observations

Time (CST) Temp. Windchill Dew Point Humidity Pressure Visibility Wind Dir Wind Speed Gust Speed Precip Events Conditions
12:53 AM 15.1 °F - 5.0 °F 64% 30.09 in 10.0 mi Calm Calm - N/A   Mostly Cloudy
1:53 AM 18.0 °F 6.1 °F 3.0 °F 52% 30.13 in 10.0 mi WSW 10.4 mph - N/A   Mostly Cloudy
2:53 AM 21.0 °F 8.6 °F 5.0 °F 50% 30.13 in 10.0 mi WSW 12.7 mph - N/A   Overcast
3:53 AM 26.1 °F 17.6 °F 10.9 °F 53% 30.12 in 10.0 mi WNW 8.1 mph - N/A   Overcast
4:53 AM 28.0 °F 18.6 °F 12.9 °F 53% 30.12 in 10.0 mi NW 10.4 mph - N/A   Overcast
5:53 AM 27.0 °F 19.5 °F 12.9 °F 56% 30.14 in 10.0 mi NW 6.9 mph - N/A   Overcast
6:53 AM 24.1 °F 15.2 °F 12.9 °F 62% 30.16 in 10.0 mi WNW 8.1 mph - N/A   Partly Cloudy
7:53 AM 23.0 °F 13.1 °F 12.9 °F 65% 30.18 in 10.0 mi WNW 9.2 mph - N/A   Clear
8:53 AM 30.0 °F 18.3 °F 17.1 °F 59% 30.19 in 10.0 mi NW 17.3 mph - N/A   Clear
9:53 AM 32.0 °F 20.5 °F 17.1 °F 54% 30.22 in 10.0 mi NNW 18.4 mph 28.8 mph N/A   Partly Cloudy
10:53 AM 33.1 °F 21.2 °F 12.0 °F 42% 30.25 in 10.0 mi NW 20.7 mph 27.6 mph N/A   Clear
11:53 AM 34.0 °F 25.5 °F 9.0 °F 35% 30.22 in 10.0 mi NW 11.5 mph - N/A   Clear
12:53 PM 35.1 °F 29.3 °F 3.9 °F 27% 30.20 in 10.0 mi West 6.9 mph - N/A   Unknown
1:53 PM 37.0 °F 29.3 °F 6.1 °F 28% 30.18 in 10.0 mi NW 11.5 mph - N/A   Clear
2:53 PM 39.0 °F 29.0 °F 8.1 °F 28% 30.18 in 10.0 mi NW 20.7 mph 29.9 mph N/A   Partly Cloudy
3:53 PM 39.0 °F 28.5 °F 10.9 °F 32% 30.17 in 10.0 mi NNW 23.0 mph 28.8 mph N/A   Partly Cloudy
4:53 PM 35.1 °F 24.5 °F 10.9 °F 37% 30.21 in 10.0 mi NNW 18.4 mph 27.6 mph N/A   Partly Cloudy
5:53 PM 34.0 °F 22.1 °F 14.0 °F 44% 30.24 in 10.0 mi NNW 21.9 mph 29.9 mph N/A   Overcast
6:53 PM 27.0 °F 13.5 °F 10.9 °F 51% 30.32 in 10.0 mi North 19.6 mph 34.5 mph N/A   Mostly Cloudy
7:53 PM 23.0 °F 8.0 °F 7.0 °F 50% 30.37 in 10.0 mi North 20.7 mph 29.9 mph N/A   Clear
8:53 PM 18.0 °F 0.6 °F 3.0 °F 52% 30.43 in 10.0 mi North 23.0 mph 31.1 mph N/A   Clear
9:53 PM 14.0 °F -5.8 °F -4.0 °F 45% 30.48 in 10.0 mi North 26.5 mph 32.2 mph N/A   Clear
10:53 PM 10.9 °F -7.9 °F -9.0 °F 40% 30.54 in 10.0 mi North 20.7 mph 31.1 mph N/A   Clear
11:53 PM 9.0 °F -9.0 °F -9.0 °F 44% 30.58 in 10.0 mi North 17.3 mph 25.3 mph N/A   Clear